Delta Virtual Airport Information Service

Denver International Airport

ICAO: KDEN Country: United States
Latitude: 39.8616 Longitude: -104.673
Latest Arrival : SWA2409 (KATL-KDEN) Latest Departure : DAC120 (KDEN-KIAH)


WX CaptureLIVE
Data provided by noaa.gov | Fetched at 08:11:32

METAR : KDEN 061353Z 21011KT 10SM FEW220 03/M07 A3011 RMK AO2 SLP194 T00281067

TAF : KDEN 061120Z 0612/0718 19010KT P6SM FEW220 FM061500 23010KT P6SM FEW220 FM062000 15008KT P6SM SCT220 FM070200 20010KT P6SM SCT220


Runway Data for KDEN
Data provided by openaviationdata.com

Runway ID Mag Var Hdg Length Elevation Surface ILS Freq ILS Id ILS Slope
7 11 79° 11980 ft 5324 ft Concrete 111.55 IDZG 3
8 11 79° 11980 ft 5324 ft Concrete 108.9 IFUI 3
16L 11 169° 12007 ft 5324 ft Concrete 111.1 ILTT 3
16R 11 169° 16011 ft 5324 ft Concrete 111.9 IDQQ 3
17L 11 169° 12008 ft 5324 ft Concrete 110.15 IBXP 3
17R 11 169° 12007 ft 5324 ft Concrete 108.5 IACX 3
25 11 259° 11980 ft 5324 ft Concrete 111.55 IERP 3
26 11 259° 11980 ft 5324 ft Concrete 108.9 IJOY 3
34L 11 349° 16011 ft 5324 ft Concrete 111.9 IDXU 3
34R 11 349° 12007 ft 5324 ft Concrete 111.1 IOUF 3
35L 11 349° 12007 ft 5324 ft Concrete 108.5 IAQD 3
35R 11 349° 12008 ft 5324 ft Concrete 110.15 IDPP 3

Denver International Airport, United States
Use only for reference purposes



Not for navigational purposes.